This demonstration page uses our WeatherBlox Daily Observations layout. Learn more.

Left ArrowRight Arrow

39.12711, -84.51439

Hourly Observations for October 31, 2021

Temp ( °F °C ) Dew Point ( °F °C ) Humidity (%) Winds ( mph kmh ) Pressure ( in mb ) Visibility ( mi km ) Precip ( " mm )
12:53 am 00:53 Cloudy 54 12.2 50 10 87 87 WNW 6 9 29.73 1007 10 16 0.00 0.00
1:45 am 01:45 Cloudy 53 11.7 50 10 89 89 NW 6 9 29.75 1008 10 16 0.00 0.00
1:53 am 01:53 Cloudy 53 11.7 50 10 89 89 WNW 5 7 29.74 1007 10 16 0.00 0.00
2:32 am 02:32 Cloudy 53 11.7 51 10.6 93 93 W 6 9 29.75 1008 10 16 0.00 0.00
2:53 am 02:53 Cloudy 53 11.7 50 10 89 89 W 7 11 29.75 1007 10 16 0.00 0.00
3:53 am 03:53 Cloudy 53 11.7 50 10 89 89 NW 5 7 29.76 1008 10 16 0.00 0.00
4:34 am 04:34 Cloudy 53 11.7 50 10 89 89 W 9 15 29.78 1009 10 16 0.00 0.00
4:42 am 04:42 Cloudy 52 11.1 50 10 93 93 W 7 11 29.79 1009 10 16 0.00 0.00
4:53 am 04:53 Cloudy 52 11.1 50 10 93 93 W 7 11 29.78 1009 10 16 0.00 0.00
5:53 am 05:53 Cloudy 53 11.7 50 10 89 89 Calm 29.81 1009 10 16 0.00 0.00
6:20 am 06:20 Cloudy 53 11.7 49 9.4 86 86 W 7 11 29.82 1010 10 16 0.00 0.00
6:53 am 06:53 Cloudy 53 11.7 49 9.4 86 86 W 9 15 29.83 1010 8 13 0.00 0.00
7:53 am 07:53 Cloudy 52 11.1 48 8.9 86 86 W 10 17 29.85 1011 8 13 0.00 0.00
8:53 am 08:53 Mostly Cloudy 52 11.1 47 8.3 83 83 W 7 11 29.89 1012 10 16 0.00 0.00
9:53 am 09:53 Cloudy 53 11.7 47 8.3 80 80 W 7 11 29.91 1013 10 16 0.00 0.00
10:53 am 10:53 Cloudy 55 12.8 49 9.4 80 80 W 5 7 29.93 1014 10 16 0.00 0.00
11:53 am 11:53 Mostly Cloudy 58 14.4 50 10 75 75 WSW 9 15 29.93 1014 10 16 0.00 0.00
12:53 pm 12:53 Cloudy 59 15 48 8.9 67 67 WNW 12 19 29.94 1014 10 16 0.00 0.00
1:53 pm 13:53 Cloudy 60 15.6 49 9.4 67 67 W 12 19 29.94 1014 10 16 0.00 0.00
2:53 pm 14:53 Mostly Cloudy 61 16.1 50 10 67 67 WSW 14 22 29.93 1014 10 16 0.00 0.00
3:53 pm 15:53 Mostly Cloudy 63 17.2 50 10 63 63 WSW 14 22 29.94 1014 10 16 0.00 0.00
4:53 pm 16:53 Mostly Cloudy 63 17.2 50 10 63 63 W 15 24 29.96 1015 10 16 0.00 0.00
5:53 pm 17:53 Cloudy 61 16.1 48 8.9 63 63 WSW 8 13 29.97 1015 10 16 0.00 0.00
6:53 pm 18:53 Cloudy 60 15.6 48 8.9 65 65 W 10 17 29.99 1016 10 16 0.00 0.00
7:53 pm 19:53 Cloudy 60 15.6 48 8.9 65 65 W 3 6 30.02 1017 10 16 0.00 0.00
8:53 pm 20:53 Cloudy 59 15 47 8.3 64 64 NNW 7 11 30.05 1018 10 16 0.00 0.00
9:53 pm 21:53 Cloudy 57 13.9 47 8.3 69 69 NW 12 19 30.08 1019 10 16 0.00 0.00
10:53 pm 22:53 Cloudy 54 12.2 44 6.7 69 69 NNW 8 13 30.13 1020 10 16 0.00 0.00
11:53 pm 23:53 Cloudy 52 11.1 43 6.1 72 72 NNW 10 17 30.15 1021 10 16 0.00 0.00

Powered by AerisWeather